| time (UTC) | temp C | wind direction | speed KPH | gust KPH | rain 1hr cm | rain 24hr cm | rain mn cm | humidity % | barometer mb |
| 20260509174003 | 29 | 348 | 6.4 | 16.1 | 0.00 | 0.08 | 0.00 | 50 | 1008.6 |
| 20260509173003 | 29 | 351 | 3.2 | 12.9 | 0.00 | 0.08 | 0.00 | 52 | 1008.6 |
| 20260509172003 | 29 | 354 | 8.0 | 14.5 | 0.00 | 0.08 | 0.00 | 54 | 1008.6 |
| 20260509171004 | 28 | 357 | 8.0 | 16.1 | 0.00 | 0.08 | 0.00 | 55 | 1008.6 |
| 20260509165004 | 28 | 7 | 12.9 | 20.9 | 0.00 | 0.08 | 0.00 | 56 | 1008.6 |
| 20260509164003 | 27 | 324 | 8.0 | 19.3 | 0.00 | 0.08 | 0.00 | 57 | 1008.6 |
| 20260509163003 | 27 | 337 | 8.0 | 19.3 | 0.00 | 0.08 | 0.00 | 55 | 1008.6 |
| 20260509162004 | 27 | 348 | 12.9 | 19.3 | 0.00 | 0.08 | 0.00 | 56 | 1008.6 |
| 20260509161003 | 27 | 353 | 8.0 | 14.5 | 0.00 | 0.08 | 0.00 | 59 | 1008.6 |
| 20260509160004 | 27 | 331 | 8.0 | 12.9 | 0.00 | 0.08 | 0.00 | 57 | 1008.5 |
| 20260509154004 | 26 | 350 | 6.4 | 19.3 | 0.00 | 0.08 | 0.00 | 59 | 1008.3 |
| 20260509153003 | 26 | 353 | 9.7 | 24.1 | 0.00 | 0.08 | 0.00 | 58 | 1008.3 |
| 20260509151004 | 26 | 359 | 12.9 | 19.3 | 0.00 | 0.08 | 0.00 | 62 | 1008.5 |
| 20260509150004 | 25 | 359 | 8.0 | 16.1 | 0.00 | 0.08 | 0.00 | 65 | 1008.5 |
| 20260509145003 | 25 | 346 | 9.7 | 14.5 | 0.00 | 0.08 | 0.00 | 70 | 1008.5 |
| 20260509144004 | 25 | 6 | 8.0 | 14.5 | 0.00 | 0.08 | 0.00 | 72 | 1008.6 |
| 20260509143004 | 24 | 346 | 3.2 | 12.9 | 0.00 | 0.08 | 0.00 | 75 | 1008.6 |
| 20260509141003 | 22 | 322 | 3.2 | 11.3 | 0.00 | 0.08 | 0.00 | 80 | 1008.6 |
| 20260509140004 | 22 | 281 | 4.8 | 9.7 | 0.00 | 0.08 | 0.00 | 82 | 1008.5 |
| 20260509135003 | 22 | 344 | 4.8 | 9.7 | 0.00 | 0.08 | 0.00 | 83 | 1008.1 |
| 20260509134004 | 21 | 343 | 4.8 | 12.9 | 0.00 | 0.08 | 0.00 | 83 | 1008.1 |
| 20260509133004 | 21 | 342 | 4.8 | 19.3 | 0.00 | 0.08 | 0.00 | 83 | 1008.1 |
| 20260509132004 | 21 | 10 | 8.0 | 16.1 | 0.00 | 0.08 | 0.00 | 84 | 1008.1 |
| 20260509131003 | 21 | 339 | 6.4 | 12.9 | 0.00 | 0.08 | 0.00 | 85 | 1008.1 |
| 20260509130004 | 21 | 319 | 6.4 | 14.5 | 0.00 | 0.08 | 0.00 | 85 | 1008.1 |
| 20260509125004 | 20 | 338 | 4.8 | 12.9 | 0.00 | 0.08 | 0.00 | 86 | 1008.1 |
| 20260509124003 | 20 | 297 | 3.2 | 9.7 | 0.00 | 0.08 | 0.00 | 88 | 1008.1 |
| 20260509123004 | 20 | 355 | 3.2 | 9.7 | 0.00 | 0.08 | 0.00 | 90 | 1008.1 |
| 20260509122004 | 20 | 307 | 4.8 | 9.7 | 0.00 | 0.08 | 0.00 | 91 | 1008.1 |
| 20260509121003 | 20 | 298 | 4.8 | 11.3 | 0.00 | 0.08 | 0.00 | 91 | 1007.8 |
| 20260509120004 | 20 | 305 | 0.0 | 0.0 | 0.00 | 0.08 | 0.00 | 90 | 1007.8 |
| 20260509115005 | 20 | 305 | 0.0 | 0.0 | 0.00 | 0.08 | 0.00 | 90 | 1007.8 |
| 20260509114003 | 20 | 305 | 0.0 | 3.2 | 0.00 | 0.08 | 0.00 | 89 | 1007.7 |
| 20260509113003 | 20 | 305 | 0.0 | 3.2 | 0.00 | 0.08 | 0.00 | 88 | 1007.2 |
| 20260509112004 | 21 | 305 | 0.0 | 1.6 | 0.00 | 0.08 | 0.00 | 87 | 1007.2 |
| 20260509111004 | 21 | 305 | 1.6 | 3.2 | 0.00 | 0.08 | 0.00 | 87 | 1007.2 |
| 20260509110003 | 21 | 305 | 1.6 | 3.2 | 0.00 | 0.08 | 0.00 | 86 | 1007.2 |
| 20260509105004 | 21 | 311 | 1.6 | 1.6 | 0.00 | 0.08 | 0.00 | 86 | 1007.1 |
| 20260509104003 | 21 | 311 | 0.0 | 9.7 | 0.00 | 0.08 | 0.00 | 86 | 1007.1 |
| 20260509103003 | 21 | 301 | 1.6 | 4.8 | 0.00 | 0.08 | 0.00 | 88 | 1007.1 |
| 20260509102003 | 21 | 315 | 3.2 | 11.3 | 0.00 | 0.08 | 0.00 | 90 | 1004.8 |
| 20260509101004 | 21 | 340 | 4.8 | 19.3 | 0.00 | 0.08 | 0.00 | 91 | 1004.8 |
| 20260509100005 | 21 | 311 | 8.0 | 19.3 | 0.00 | 0.08 | 0.00 | 92 | 1004.8 |
| 20260509095003 | 21 | 224 | 6.4 | 9.7 | 0.00 | 0.08 | 0.00 | 92 | 1004.8 |
| 20260509094004 | 21 | 199 | 8.0 | 19.3 | 0.00 | 0.08 | 0.00 | 92 | 1004.6 |
| 20260509093003 | 21 | 169 | 4.8 | 14.5 | 0.00 | 0.08 | 0.00 | 92 | 1004.6 |
| 20260509092003 | 21 | 165 | 4.8 | 16.1 | 0.00 | 0.08 | 0.00 | 92 | 1004.6 |
| 20260509091003 | 21 | 128 | 6.4 | 16.1 | 0.00 | 0.08 | 0.00 | 92 | 1004.6 |
| 20260509085004 | 20 | 185 | 8.0 | 14.5 | 0.00 | 0.08 | 0.00 | 93 | 1005.0 |
| 20260509084004 | 20 | 172 | 4.8 | 19.3 | 0.00 | 0.08 | 0.00 | 92 | 1005.0 |
| 20260509083003 | 20 | 183 | 4.8 | 11.3 | 0.00 | 0.08 | 0.00 | 92 | 1007.1 |
| 20260509082004 | 20 | 214 | 6.4 | 11.3 | 0.00 | 0.08 | 0.00 | 93 | 1007.1 |
| 20260509075004 | 20 | 167 | 1.6 | 4.8 | 0.00 | 0.08 | 0.00 | 92 | 1008.4 |
| 20260509074003 | 20 | 169 | 1.6 | 9.7 | 0.00 | 0.08 | 0.00 | 92 | 1008.4 |
| 20260509073003 | 20 | 194 | 1.6 | 9.7 | 0.00 | 0.08 | 0.00 | 92 | 1009.2 |
| 20260509072004 | 20 | 5 | 1.6 | 3.2 | 0.00 | 0.08 | 0.00 | 93 | 1009.2 |
| 20260509071003 | 20 | 345 | 0.0 | 1.6 | 0.00 | 0.08 | 0.00 | 93 | 1009.2 |
| 20260509070004 | 20 | 344 | 1.6 | 4.8 | 0.00 | 0.08 | 0.00 | 93 | 1009.1 |
| 20260509065003 | 20 | 355 | 0.0 | 0.0 | 0.00 | 0.08 | 0.00 | 93 | 1009.1 |
| 20260509064003 | 20 | 355 | 0.0 | 0.0 | 0.00 | 0.08 | 0.00 | 93 | 1009.1 |
| 20260509063003 | 20 | 355 | 0.0 | 0.0 | 0.00 | 0.08 | 0.00 | 93 | 1009.1 |
| 20260509062003 | 20 | 355 | 0.0 | 3.2 | 0.00 | 0.08 | 0.00 | 93 | 1009.1 |
| 20260509061003 | 20 | 355 | 0.0 | 3.2 | 0.00 | 0.08 | 0.00 | 93 | 1009.0 |
| 20260509060004 | 20 | 352 | 4.8 | 8.0 | 0.00 | 0.08 | 0.00 | 93 | 1009.0 |
| 20260509055004 | 20 | 338 | 3.2 | 8.0 | 0.00 | 0.08 | 0.00 | 93 | 1009.0 |
| 20260509054004 | 20 | 340 | 3.2 | 9.7 | 0.00 | 0.08 | 0.00 | 92 | 1008.0 |
| 20260509053004 | 20 | 138 | 0.0 | 1.6 | 0.00 | 0.08 | 0.00 | 91 | 1008.0 |
| 20260509052003 | 20 | 138 | 0.0 | 0.0 | 0.00 | 0.08 | 0.00 | 91 | 1008.0 |
| 20260509051003 | 20 | 138 | 0.0 | 0.0 | 0.00 | 0.08 | 0.00 | 90 | 1008.0 |
| 20260509050004 | 21 | 138 | 0.0 | 1.6 | 0.00 | 0.08 | 0.00 | 90 | 1007.6 |
| 20260509043004 | 21 | 138 | 0.0 | 1.6 | 0.00 | 0.08 | 0.08 | 88 | 1007.6 |
| 20260509042004 | 21 | 138 | 0.0 | 0.0 | 0.00 | 0.08 | 0.08 | 88 | 1007.6 |
| 20260509041004 | 21 | 138 | 0.0 | 0.0 | 0.00 | 0.08 | 0.08 | 88 | 1007.6 |
| 20260509040004 | 21 | 138 | 0.0 | 1.6 | 0.00 | 0.08 | 0.08 | 87 | 1007.6 |
| 20260509035004 | 21 | 138 | 1.6 | 4.8 | 0.00 | 0.08 | 0.08 | 87 | 1007.6 |
| 20260509034003 | 22 | 133 | 1.6 | 4.8 | 0.00 | 0.08 | 0.08 | 86 | 1007.6 |
| 20260509033003 | 22 | 145 | 1.6 | 4.8 | 0.00 | 0.08 | 0.08 | 86 | 1007.3 |
| 20260509032003 | 22 | 146 | 1.6 | 3.2 | 0.00 | 0.08 | 0.08 | 85 | 1007.3 |
| 20260509031004 | 22 | 136 | 1.6 | 3.2 | 0.00 | 0.08 | 0.08 | 85 | 1007.3 |
| 20260509030004 | 22 | 134 | 0.0 | 4.8 | 0.00 | 0.08 | 0.08 | 85 | 1006.5 |
| 20260509024003 | 22 | 206 | 1.6 | 8.0 | 0.00 | 0.08 | 0.08 | 85 | 1006.5 |
| 20260509022003 | 22 | 151 | 0.0 | 0.0 | 0.00 | 0.08 | 0.08 | 84 | 1006.8 |
| 20260509021004 | 22 | 151 | 0.0 | 0.0 | 0.00 | 0.08 | 0.08 | 84 | 1006.7 |
| 20260509020004 | 22 | 151 | 0.0 | 0.0 | 0.00 | 0.08 | 0.08 | 84 | 1006.7 |
| 20260509015004 | 22 | 151 | 0.0 | 0.0 | 0.00 | 0.08 | 0.08 | 83 | 1006.7 |
| 20260509014003 | 22 | 151 | 0.0 | 0.0 | 0.00 | 0.08 | 0.08 | 83 | 1006.7 |
| 20260509013004 | 22 | 151 | 0.0 | 0.0 | 0.00 | 0.08 | 0.08 | 83 | 1006.2 |
| 20260509012003 | 22 | 151 | 0.0 | 0.0 | 0.00 | 0.08 | 0.08 | 82 | 1006.2 |
| 20260509010003 | 22 | 151 | 0.0 | 0.0 | 0.00 | 0.08 | 0.08 | 82 | 1006.1 |
| 20260509005005 | 22 | 151 | 0.0 | 3.2 | 0.00 | 0.08 | 0.08 | 81 | 1006.0 |
| 20260509004004 | 22 | 151 | 0.0 | 1.6 | 0.00 | 0.08 | 0.08 | 81 | 1005.9 |
| 20260509003004 | 23 | 151 | 0.0 | 3.2 | 0.00 | 0.08 | 0.08 | 80 | 1005.9 |
| 20260509002003 | 23 | 151 | 1.6 | 3.2 | 0.00 | 0.08 | 0.08 | 80 | 1006.2 |
| 20260509001004 | 23 | 151 | 0.0 | 4.8 | 0.00 | 0.08 | 0.08 | 79 | 1006.2 |
| 20260509000004 | 23 | 147 | 1.6 | 4.8 | 0.00 | 0.08 | 0.08 | 79 | 1007.0 |
| 20260508234003 | 23 | 142 | 1.6 | 4.8 | 0.00 | 0.08 | 0.08 | 79 | 1007.0 |
| 20260508233003 | 23 | 166 | 3.2 | 11.3 | 0.00 | 0.08 | 0.08 | 78 | 1007.0 |
| 20260508232003 | 23 | 150 | 1.6 | 8.0 | 0.00 | 0.08 | 0.08 | 77 | 1007.0 |
| 20260508231003 | 23 | 218 | 1.6 | 11.3 | 0.00 | 0.08 | 0.08 | 77 | 1007.0 |
| 20260508230003 | 23 | 158 | 4.8 | 9.7 | 0.00 | 0.08 | 0.08 | 77 | 1007.0 |
| 20260508225003 | 23 | 155 | 3.2 | 8.0 | 0.00 | 0.08 | 0.08 | 77 | 1007.0 |
| 20260508224004 | 23 | 161 | 1.6 | 8.0 | 0.00 | 0.08 | 0.08 | 79 | 1007.0 |
| 20260508223004 | 22 | 136 | 3.2 | 9.7 | 0.00 | 0.08 | 0.08 | 80 | 1007.0 |
| 20260508221003 | 21 | 126 | 4.8 | 9.7 | 0.00 | 0.08 | 0.08 | 83 | 1007.0 |
| 20260508220003 | 21 | 110 | 3.2 | 14.5 | 0.00 | 0.08 | 0.08 | 85 | 1007.0 |
| 20260508215003 | 20 | 194 | 3.2 | 9.7 | 0.00 | 0.08 | 0.08 | 88 | 1007.0 |
| 20260508214004 | 20 | 166 | 1.6 | 4.8 | 0.00 | 0.08 | 0.08 | 87 | 1007.4 |
| 20260508213004 | 20 | 142 | 1.6 | 4.8 | 0.05 | 0.08 | 0.08 | 87 | 1007.4 |
| 20260508212003 | 20 | 169 | 1.6 | 3.2 | 0.05 | 0.08 | 0.08 | 87 | 1007.4 |
| 20260508211004 | 20 | 205 | 1.6 | 4.8 | 0.08 | 0.08 | 0.08 | 88 | 1007.4 |
| 20260508205004 | 19 | 295 | 1.6 | 9.7 | 0.08 | 0.08 | 0.08 | 88 | 1007.4 |
| 20260508204003 | 19 | 335 | 3.2 | 9.7 | 0.08 | 0.08 | 0.08 | 86 | 1007.4 |
| 20260508203003 | 20 | 168 | 4.8 | 9.7 | 0.03 | 0.03 | 0.03 | 83 | 1008.0 |
| 20260508202004 | 20 | 143 | 1.6 | 4.8 | 0.03 | 0.03 | 0.03 | 80 | 1009.3 |
| 20260508201003 | 21 | 130 | 1.6 | 12.9 | 0.00 | 0.00 | 0.00 | 76 | 1009.3 |
| 20260508200004 | 21 | 174 | 3.2 | 12.9 | 0.00 | 0.00 | 0.00 | 72 | 1009.3 |
| 20260508195003 | 21 | 187 | 3.2 | 9.7 | 0.00 | 0.00 | 0.00 | 70 | 1009.0 |
| 20260508194004 | 22 | 221 | 3.2 | 12.9 | 0.00 | 0.00 | 0.00 | 68 | 1009.5 |
| 20260508193004 | 22 | 174 | 3.2 | 11.3 | 0.00 | 0.00 | 0.00 | 67 | 1009.5 |
| 20260508191003 | 22 | 162 | 3.2 | 9.7 | 0.00 | 0.00 | 0.00 | 67 | 1009.5 |
| 20260508190003 | 22 | 181 | 4.8 | 11.3 | 0.00 | 0.00 | 0.00 | 68 | 1009.5 |
| 20260508185003 | 22 | 177 | 3.2 | 12.9 | 0.00 | 0.00 | 0.00 | 68 | 1009.5 |
| 20260508184003 | 22 | 182 | 3.2 | 12.9 | 0.00 | 0.00 | 0.00 | 68 | 1009.5 |
| 20260508182004 | 22 | 168 | 1.6 | 9.7 | 0.00 | 0.00 | 0.00 | 68 | 1009.8 |
| 20260508180003 | 22 | 181 | 3.2 | 11.3 | 0.00 | 0.00 | 0.00 | 67 | 1009.8 |
| 20260508175003 | 22 | 135 | 4.8 | 11.3 | 0.00 | 0.00 | 0.00 | 65 | 1010.2 |